Location: Dana
(41.8364°N, 106.7042°W)
Time: 02:45:57
(UTC+00:00)

Transit 4A - Pass Details

Date: 11 May 2026
Orbit: 860 x 980 km, 66.8° (Epoch: 6 June)

Event Time Altitude Azimuth Distance (km) Brightness Sun altitude
Rises 18:35:40 0° 283° (WNW) 3,599 10.8 65.5°
Reaches altitude 10° 18:40:45 10° 319° (NW) 2,690 10.2 65.7°
Maximum altitude 18:42:17 11° 333° (NNW) 2,635 10.2 65.8°
Drops below altitude 10° 18:43:51 10° 348° (NNW) 2,708 10.2 65.8°
Sets 18:49:04 0° 23° (NNE) 3,679 10.8 66.0°
